Big Bear Station Historical Data
Daily Summary for February 28, 2017 Units:  English    Metric   Both
« Previous Day
Next Day »
Daily Weekly Monthly Yearly Custom
  High: Low: Average:
Temperature: 40.5 °F 22.5 °F 30.1 °F
Dew Point: 30.5 °F 19.0 °F 25.2 °F
Humidity: 97 % 44 % 83 %
Wind Speed: 10.9 mph 0.0 mph 1.7 mph
Wind Gust: -999.0 mph - -
Wind:- - WSW
Pressure: 30.21 in 29.85 in -
Precipitation: 0.26 in    
Historical Graphs
 
 
Tabular Data for February 28, 2017
Time Temperature Dew Point Pressure Wind Wind Speed Wind Gust Humidity Rainfall Rate (Hourly)
00:11 29.7 °F 27.1 °F 29.85 in SSE 5.3 mph -999.0 mph 90 % 0 in
00:27 29.5 °F 26.9 °F 29.85 in South 3.7 mph -999.0 mph 90 % 0 in
00:42 29.1 °F 26.8 °F 29.85 in ESE 3.7 mph -999.0 mph 91 % 0 in
00:59 28.6 °F 26.0 °F 29.86 in SSE 1.1 mph -999.0 mph 90 % 0 in
01:14 28.4 °F 26.1 °F 29.86 in NW 2.7 mph -999.0 mph 91 % 0 in
01:30 28.0 °F 25.7 °F 29.86 in North 4.7 mph -999.0 mph 91 % 0 in
01:46 27.7 °F 25.2 °F 29.86 in NW 10.9 mph -999.0 mph 90 % 0 in
02:01 27.9 °F 25.6 °F 29.86 in WNW 2.2 mph -999.0 mph 91 % 0 in
02:18 27.7 °F 25.4 °F 29.86 in NW 3.7 mph -999.0 mph 91 % 0 in
02:35 27.1 °F 24.3 °F 29.86 in North 2.2 mph -999.0 mph 89 % 0 in
02:51 27.1 °F 24.6 °F 29.86 in SE 2.7 mph -999.0 mph 90 % 0 in
03:06 27.0 °F 24.7 °F 29.86 in West 3.7 mph -999.0 mph 91 % 0 in
03:23 27.0 °F 24.7 °F 29.86 in NE 2.7 mph -999.0 mph 91 % 0 in
03:39 27.3 °F 25.8 °F 29.87 in SW 3.2 mph -999.0 mph 94 % 0 in
03:54 27.3 °F 25.0 °F 29.87 in SSW 2.2 mph -999.0 mph 91 % 0 in
04:09 26.8 °F 24.0 °F 29.87 in West 3.2 mph -999.0 mph 89 % 0 in
04:24 26.4 °F 24.1 °F 29.88 in NNW 1.7 mph -999.0 mph 91 % 0 in
04:41 26.4 °F 24.4 °F 29.89 in NW 3.7 mph -999.0 mph 92 % 0 in
04:59 26.4 °F 24.1 °F 29.89 in NW 3.7 mph -999.0 mph 91 % 0 in
05:14 26.2 °F 23.9 °F 29.89 in East 2.7 mph -999.0 mph 91 % 0 in
05:29 26.4 °F 24.1 °F 29.90 in SSE 2.2 mph -999.0 mph 91 % 0 in
05:44 26.4 °F 24.7 °F 29.91 in Calm   -999.0 mph 93 % 0 in
06:00 26.4 °F 24.4 °F 29.92 in Calm   -999.0 mph 92 % 0 in
06:15 25.7 °F 23.4 °F 29.93 in Calm   -999.0 mph 91 % 0 in
06:30 24.8 °F 22.5 °F 29.93 in Calm   -999.0 mph 91 % 0 in
06:46 24.3 °F 22.3 °F 29.94 in Calm   -999.0 mph 92 % 0 in
07:01 24.3 °F 22.6 °F 29.94 in Calm   -999.0 mph 93 % 0 in
07:16 24.8 °F 23.1 °F 29.95 in Calm   -999.0 mph 93 % 0 in
07:31 25.0 °F 23.3 °F 29.96 in Calm   -999.0 mph 93 % 0 in
07:46 25.5 °F 23.8 °F 29.97 in Calm   -999.0 mph 93 % 0 in
08:02 25.5 °F 22.4 °F 29.98 in Calm   -999.0 mph 88 % 0 in
08:17 26.4 °F 22.2 °F 29.99 in Calm   -999.0 mph 84 % 0 in
08:32 26.4 °F 22.5 °F 30.00 in Calm   -999.0 mph 85 % 0 in
08:47 27.3 °F 21.9 °F 30.00 in Calm   -999.0 mph 80 % 0 in
09:02 28.2 °F 23.1 °F 30.01 in Calm   -999.0 mph 81 % 0 in
09:18 29.5 °F 23.5 °F 30.02 in Calm   -999.0 mph 78 % 0 in
09:33 30.6 °F 24.2 °F 30.02 in NNE 1.1 mph -999.0 mph 77 % 0 in
09:48 31.8 °F 25.4 °F 30.02 in North 2.2 mph -999.0 mph 77 % 0 in
10:03 33.1 °F 26.4 °F 30.03 in NW 3.2 mph -999.0 mph 76 % 0 in
10:18 34.2 °F 25.4 °F 30.04 in West 2.7 mph -999.0 mph 70 % 0 in
10:34 35.4 °F 25.5 °F 30.05 in NW 2.7 mph -999.0 mph 67 % 0 in
10:49 36.1 °F 26.2 °F 30.05 in North 2.2 mph -999.0 mph 67 % 0 in
11:05 36.3 °F 19.0 °F 30.05 in Calm   -999.0 mph 49 % 0 in
11:20 37.4 °F 20.4 °F 30.05 in NW 2.2 mph -999.0 mph 50 % 0 in
11:35 39.4 °F 21.8 °F 30.06 in NNW 3.7 mph -999.0 mph 49 % 0 in
11:50 39.0 °F 22.9 °F 30.05 in North 5.3 mph -999.0 mph 52 % 0 in
12:06 39.0 °F 20.0 °F 30.06 in ENE 3.7 mph -999.0 mph 46 % 0 in
12:21 39.9 °F 19.7 °F 30.06 in WNW 2.7 mph -999.0 mph 44 % 0 in
12:36 40.5 °F 23.8 °F 30.06 in Calm   -999.0 mph 51 % 0 in
12:51 39.0 °F 25.9 °F 30.05 in NNW 3.7 mph -999.0 mph 59 % 0 in
13:07 39.0 °F 26.7 °F 30.06 in South 1.7 mph -999.0 mph 61 % 0 in
13:22 37.9 °F 26.0 °F 30.06 in WSW 1.7 mph -999.0 mph 62 % 0 in
13:37 39.2 °F 28.8 °F 30.06 in WNW 3.7 mph -999.0 mph 66 % 0 in
13:53 38.1 °F 28.5 °F 30.06 in NNW 3.7 mph -999.0 mph 68 % 0 in
14:08 37.8 °F 28.9 °F 30.06 in NW 4.2 mph -999.0 mph 70 % 0 in
14:23 37.6 °F 29.7 °F 30.07 in North 3.7 mph -999.0 mph 73 % 0 in
14:39 37.8 °F 29.9 °F 30.07 in WNW 3.7 mph -999.0 mph 73 % 0 in
14:54 37.0 °F 29.5 °F 30.07 in NW 3.7 mph -999.0 mph 74 % 0 in
15:09 37.4 °F 27.1 °F 30.07 in South 1.1 mph -999.0 mph 66 % 0 in
15:24 37.2 °F 27.6 °F 30.08 in NNW 3.2 mph -999.0 mph 68 % 0 in
15:39 37.2 °F 28.0 °F 30.08 in Calm   -999.0 mph 69 % 0 in
15:55 36.9 °F 28.7 °F 30.09 in South 3.7 mph -999.0 mph 72 % 0 in
16:10 36.7 °F 29.2 °F 30.09 in NNW 1.7 mph -999.0 mph 74 % 0 in
16:26 36.5 °F 28.3 °F 30.09 in Calm   -999.0 mph 72 % 0 in
16:41 36.7 °F 30.5 °F 30.10 in NW 3.2 mph -999.0 mph 78 % 0 in
16:56 34.7 °F 30.4 °F 30.10 in WNW 2.2 mph -999.0 mph 84 % 0 in
17:12 33.4 °F 29.9 °F 30.10 in Calm   -999.0 mph 87 % 0 in
17:27 32.2 °F 29.0 °F 30.11 in Calm   -999.0 mph 88 % 0 in
17:43 31.3 °F 28.4 °F 30.11 in Calm   -999.0 mph 89 % 0 in
17:58 30.6 °F 28.3 °F 30.12 in Calm   -999.0 mph 91 % 0 in
18:13 29.8 °F 28.0 °F 30.13 in West 1.1 mph -999.0 mph 93 % 0 in
18:28 29.3 °F 27.5 °F 30.13 in Calm   -999.0 mph 93 % 0 in
18:43 29.1 °F 27.3 °F 30.14 in South 2.2 mph -999.0 mph 93 % 0 in
18:59 28.6 °F 26.8 °F 30.14 in South 1.1 mph -999.0 mph 93 % 0 in
19:14 28.0 °F 26.5 °F 30.15 in South 2.2 mph -999.0 mph 94 % 0 in
19:29 27.5 °F 26.0 °F 30.15 in Calm   -999.0 mph 94 % 0 in
19:44 27.1 °F 25.6 °F 30.16 in Calm   -999.0 mph 94 % 0 in
19:59 26.8 °F 25.6 °F 30.17 in ESE 1.1 mph -999.0 mph 95 % 0 in
20:15 26.8 °F 25.8 °F 30.16 in South 2.2 mph -999.0 mph 96 % 0 in
20:30 26.4 °F 25.4 °F 30.17 in Calm   -999.0 mph 96 % 0 in
20:45 26.2 °F 25.2 °F 30.17 in Calm   -999.0 mph 96 % 0 in
21:00 25.7 °F 24.7 °F 30.18 in Calm   -999.0 mph 96 % 0 in
21:16 25.3 °F 24.3 °F 30.18 in Calm   -999.0 mph 96 % 0 in
21:31 25.2 °F 24.2 °F 30.19 in Calm   -999.0 mph 96 % 0 in
21:46 24.8 °F 23.8 °F 30.19 in Calm   -999.0 mph 96 % 0 in
22:01 24.4 °F 23.7 °F 30.19 in Calm   -999.0 mph 97 % 0 in
22:16 24.1 °F 23.4 °F 30.20 in Calm   -999.0 mph 97 % 0 in
22:32 24.1 °F 23.4 °F 30.20 in Calm   -999.0 mph 97 % 0 in
22:47 23.9 °F 23.2 °F 30.20 in Calm   -999.0 mph 97 % 0 in
23:02 23.2 °F 22.5 °F 30.20 in Calm   -999.0 mph 97 % 0 in
23:17 23.0 °F 22.3 °F 30.20 in Calm   -999.0 mph 97 % 0 in
23:32 23.2 °F 22.2 °F 30.21 in Calm   -999.0 mph 96 % 0 in
23:48 22.5 °F 21.5 °F 30.21 in Calm   -999.0 mph 96 % 0 in
Big Bear CA Weather
Compliments of Weather Underground - 1.5 mb